[[{"header":{"parameterUnit":"m.s-1","parameterCategory":1,"la1":30.2991,"la2":30.254,"lo1":-89.0895,"lo2":-89.0444,"dy":0.0017,"dx":0.0017,"nx":28,"ny":28,"refTime":"2025-06-06T03:00:00:Z","depth":0,"parameterNumber":2,"parameterNumberName":"U-component_of_WINDS"},"data":[0,0,0,0,0,0,0,0,0,0,0,0,0,0,0,0,0,0,0,0,0,0,0,0,0,0,0,0,0,0,0,0,0,0,0,0,0,0,0,0,0,0,0,0,0,0,0,0,0,0,0,0,0,0,0,0,0,0,1.9914,1.9915,0,1.9966,1.9967,1.9967,1.9971,1.997,1.997,1.9969,2.0025,2.0027,2.0029,0,0,0,0,0,0,0,0,0,0,0,0,0,1.982,1.9821,1.9914,1.9915,1.9915,1.9966,1.9967,1.9967,1.9971,1.997,1.997,1.9969,2.0024,2.0026,2.0029,0,0,0,0,0,0,0,0,0,0,0,0,0,1.9865,1.9822,1.9914,1.9923,1.9925,1.9966,1.9967,1.9967,1.9971,1.997,1.9969,1.9969,2.0023,2.0026,2.0029,2.0065,0,0,2.0038,2.004,0,0,0,0,0,0,0,0,1.9863,1.9869,1.9921,1.9923,1.9924,1.9961,1.9954,2.0,1.9971,1.9954,1.9969,1.9968,2.0004,2.0009,2.0021,2.0068,2.007,2.0039,2.004,2.0042,2.0043,0,0,0,0,0,0,0,1.9859,1.9866,1.9935,1.9922,1.9924,1.9925,1.9931,1.9962,1.9983,1.9955,1.9955,1.9961,2.0005,2.0018,2.0022,2.0071,2.0038,2.0041,2.0043,2.0044,2.015,2.0151,0,0,0,0,0,0,1.9854,1.9864,1.9933,1.9936,1.9891,1.9928,1.9934,1.995,1.9983,1.9987,1.9962,1.9961,2.0013,2.0018,2.0024,2.0068,2.0042,2.0044,2.0046,2.0149,2.015,2.0151,0,0,0,0,0,0,1.9852,1.986,1.9931,1.99,1.9909,1.993,1.9949,1.9952,1.9964,1.9988,1.9992,1.9971,2.0012,2.002,2.0054,2.007,2.0046,2.0049,2.0147,2.0149,2.015,2.0156,0,0,0,0,0,0,1.9849,1.986,1.9873,1.99,1.9911,1.996,1.9949,1.9953,1.9969,1.9969,1.9998,2.0002,2.0012,2.005,2.0057,2.0073,2.0051,2.0146,2.0148,2.015,2.0154,2.0157,2.016,0,0,0,0,0,1.9846,1.9873,1.9874,1.9882,1.9928,1.9961,1.9967,1.9978,1.997,1.9984,2.0,2.0001,2.0067,2.0053,2.0062,2.0079,2.0145,2.0148,2.015,2.0153,2.0157,2.016,0,0,0,0,0,0,1.9848,1.9877,1.9878,1.9915,1.9935,1.9962,1.998,1.9982,2.0006,2.0004,2.0018,2.0024,2.0058,2.0072,2.0057,2.0115,2.0105,2.0109,2.0105,2.0108,2.0111,2.0107,2.0053,0,0,0,0,0,1.9853,1.9876,1.9901,1.9931,1.9941,1.9958,1.9973,1.998,2.0002,2.0011,2.0029,2.0051,2.0077,2.0093,2.0118,2.0156,2.0163,2.0172,2.0175,2.0177,2.018,2.0201,2.0205,2.0158,2.0158,2.0158,0,0,1.9863,1.9881,1.9896,1.9932,1.9948,1.9973,1.9966,1.9992,2.0011,2.0015,2.0049,2.0063,2.0089,2.0125,2.0142,2.0137,2.0194,2.018,2.0181,2.0183,2.0203,2.0208,2.0212,2.016,2.0159,2.0159,0,0,1.9893,1.991,1.9936,1.9953,1.9978,1.999,1.9996,2.0022,2.0031,2.0065,2.0068,2.0091,2.0135,2.0153,2.0168,2.0204,2.0206,2.0212,2.0226,2.0246,2.025,2.0253,2.0265,2.027,2.0216,2.0216,2.0216,0,1.9903,1.9939,1.995,1.9976,1.9992,1.9996,2.0023,2.0039,2.0071,2.0082,2.0077,2.0131,2.0149,2.0189,2.0198,2.021,2.0218,2.0209,2.0248,2.0252,2.0255,2.0267,2.0272,2.0216,2.0216,2.0216,2.0216,0,1.9949,1.9975,1.9993,2.0023,2.0041,2.0067,2.0082,2.0099,2.0104,2.0116,2.015,2.0172,2.02,2.0211,2.0216,2.0252,2.0248,2.0245,2.0235,2.026,2.0271,2.0276,2.0217,2.0217,2.0216,2.0216,0,0,1.9983,2.0018,2.0024,2.0037,2.0065,2.0085,2.0112,2.014,2.0153,2.0176,2.0198,2.0235,2.0233,2.0249,2.0257,2.0275,2.0301,2.027,2.027,2.0274,2.0341,2.0342,2.0347,2.0303,2.0304,2.0304,2.0338,0,2.0016,2.0062,2.0072,2.0113,2.0136,2.0141,2.0164,2.0184,2.0196,2.0218,2.0231,2.0257,2.0252,2.0262,2.0279,2.0294,2.0315,2.0292,2.0324,2.0325,2.0317,2.0354,2.0355,2.0386,2.0343,2.0344,2.0344,0,2.0061,2.0083,2.0125,2.0149,2.0159,2.018,2.0206,2.0227,2.0249,2.0257,2.0275,2.0281,2.0309,2.0298,2.0337,2.0321,2.0335,2.0344,2.0346,2.0349,2.0336,2.0357,2.0397,2.0401,2.0352,2.0351,2.0351,0,2.008,2.012,2.0151,2.0162,2.0191,2.0205,2.0218,2.024,2.0256,2.0278,2.0289,2.0315,2.0329,2.0349,2.0362,2.0353,2.04,2.039,2.0407,2.0406,2.0416,2.0415,2.0458,2.0426,2.0426,2.0426,2.0426,0,2.0115,2.0141,2.0159,2.0178,2.0207,2.0219,2.0247,2.026,2.0279,2.0301,2.0307,2.0327,2.0342,2.0365,2.0375,2.0406,2.0412,2.0419,2.0421,2.0418,2.0417,2.0427,2.0425,2.0427,2.0427,2.0426,2.0426,0,2.0141,2.0155,2.0188,2.0213,2.0219,2.0239,2.0261,2.0279,2.0291,2.0318,2.0325,2.0344,2.0371,2.0385,2.0419,2.0426,2.046,2.0461,2.0452,2.0453,2.0468,2.0466,2.0518,2.0525,2.0489,2.049,2.049,0,2.0163,2.0182,2.0209,2.0223,2.0236,2.0259,2.0275,2.0287,2.0304,2.033,2.0345,2.0372,2.0394,2.0437,2.0454,2.048,2.0481,2.0498,2.0485,2.0481,2.0481,2.0479,2.0481,2.05,2.05,2.05,2.0501,0,2.0199,2.0205,2.0227,2.0251,2.0269,2.0289,2.0309,2.0321,2.0336,2.0354,2.0381,2.0398,2.0432,2.0458,2.0485,2.0499,2.0503,2.0504,2.0509,2.0506,2.0499,2.0503,2.0457,2.0503,2.0503,2.0503,2.0502,2.0502,2.0223,2.0241,2.0261,2.0286,2.0302,2.032,2.0338,2.0352,2.0374,2.0402,2.0408,2.0436,2.0458,2.0495,2.0509,2.0532,2.0529,2.0536,2.0538,2.054,2.054,2.0496,2.0537,2.0537,2.0537,2.0537,2.0537,0,2.0259,2.0273,2.0295,2.0322,2.0341,2.0342,2.0364,2.038,2.0404,2.0424,2.0445,2.0476,2.0501,2.052,2.0546,2.056,2.0562,2.0567,2.0566,2.0569,2.0541,2.0534,2.0565,2.0565,2.0565,2.0565,2.0565,2.0565,2.028,2.0309,2.0317,2.0354,2.0368,2.0395,2.0407,2.0424,2.044,2.0473,2.0494,2.0506,2.0526,2.0553,2.0576,2.0581,2.0591,2.0595,2.06,2.0574,2.0571,2.0568,2.0561,2.0597,2.0597,2.0625,2.0625,2.0625]},{"header":{"parameterUnit":"m.s-1","parameterCategory":1,"la1":30.2991,"la2":30.254,"lo1":-89.0895,"lo2":-89.0444,"dy":0.0017,"dx":0.0017,"nx":28,"ny":28,"refTime":"2025-06-06T03:00:00:Z","depth":0,"parameterNumber":3,"parameterNumberName":"V-component_of_WINDS"},"data":[0,0,0,0,0,0,0,0,0,0,0,0,0,0,0,0,0,0,0,0,0,0,0,0,0,0,0,0,0,0,0,0,0,0,0,0,0,0,0,0,0,0,0,0,0,0,0,0,0,0,0,0,0,0,0,0,0,0,2.3556,2.3556,0,2.3562,2.3562,2.3562,2.3564,2.3564,2.3564,2.3564,2.3569,2.3569,2.3569,0,0,0,0,0,0,0,0,0,0,0,0,0,2.3546,2.3546,2.3556,2.3556,2.3556,2.3562,2.3562,2.3562,2.3564,2.3564,2.3564,2.3564,2.3569,2.3569,2.3569,0,0,0,0,0,0,0,0,0,0,0,0,0,2.3551,2.3546,2.3556,2.3558,2.3558,2.3562,2.3562,2.3562,2.3564,2.3564,2.3564,2.3564,2.3569,2.3569,2.3569,2.3572,0,0,2.357,2.357,0,0,0,0,0,0,0,0,2.355,2.3551,2.3558,2.3558,2.3558,2.3562,2.356,2.3566,2.3564,2.3562,2.3564,2.3564,2.3567,2.3567,2.3568,2.3572,2.3572,2.357,2.357,2.357,2.357,0,0,0,0,0,0,0,2.355,2.3551,2.3559,2.3558,2.3558,2.3558,2.3559,2.3561,2.3564,2.3562,2.3562,2.3563,2.3567,2.3568,2.3568,2.3572,2.357,2.357,2.357,2.3571,2.3579,2.3579,0,0,0,0,0,0,2.355,2.3551,2.3558,2.3559,2.3554,2.3558,2.3559,2.3561,2.3564,2.3565,2.3563,2.3563,2.3568,2.3568,2.3569,2.3572,2.357,2.3571,2.3571,2.3579,2.3579,2.3579,0,0,0,0,0,0,2.3549,2.355,2.3558,2.3555,2.3556,2.3559,2.3561,2.3561,2.3562,2.3565,2.3565,2.3563,2.3568,2.3568,2.3571,2.3572,2.3571,2.3571,2.3579,2.3579,2.3579,2.3579,0,0,0,0,0,0,2.3549,2.355,2.3551,2.3555,2.3556,2.3561,2.3561,2.3561,2.3563,2.3563,2.3566,2.3566,2.3568,2.3571,2.3571,2.3573,2.3571,2.3579,2.3579,2.3579,2.3579,2.3579,2.358,0,0,0,0,0,2.3549,2.3551,2.3551,2.3552,2.3557,2.3561,2.3562,2.3563,2.3563,2.3564,2.3566,2.3566,2.3572,2.3571,2.3572,2.3573,2.3579,2.3579,2.3579,2.3579,2.3579,2.358,0,0,0,0,0,0,2.3547,2.3551,2.3552,2.3555,2.3558,2.3561,2.3563,2.3563,2.3566,2.3566,2.3567,2.3568,2.3571,2.3572,2.3571,2.3576,2.3576,2.3576,2.3575,2.3575,2.3576,2.3575,2.3571,0,0,0,0,0,2.3547,2.355,2.3553,2.3556,2.3557,2.356,2.3561,2.3562,2.3565,2.3566,2.3568,2.357,2.3573,2.3574,2.3576,2.358,2.358,2.3581,2.3581,2.3581,2.3581,2.3583,2.3583,2.358,2.358,2.358,0,0,2.3547,2.355,2.3551,2.3556,2.3558,2.356,2.356,2.3563,2.3565,2.3566,2.3569,2.3571,2.3573,2.3577,2.3578,2.3578,2.3582,2.3581,2.3581,2.3581,2.3583,2.3584,2.3584,2.358,2.358,2.358,0,0,2.3548,2.3551,2.3553,2.3556,2.3559,2.3561,2.3561,2.3565,2.3566,2.3569,2.357,2.3572,2.3577,2.3579,2.358,2.3583,2.3583,2.3584,2.3584,2.3586,2.3586,2.3587,2.3588,2.3588,2.3584,2.3584,2.3584,0,2.3548,2.3552,2.3554,2.3557,2.3559,2.3561,2.3563,2.3565,2.3569,2.357,2.357,2.3576,2.3578,2.3581,2.3582,2.3583,2.3584,2.3583,2.3586,2.3587,2.3587,2.3588,2.3588,2.3584,2.3584,2.3584,2.3584,0,2.3551,2.3554,2.3556,2.356,2.3562,2.3565,2.3568,2.3569,2.3571,2.3572,2.3576,2.3578,2.3581,2.3582,2.3583,2.3586,2.3586,2.3586,2.3585,2.3587,2.3588,2.3588,2.3584,2.3584,2.3584,2.3584,0,0,2.3551,2.3557,2.3558,2.356,2.3564,2.3566,2.3569,2.3572,2.3574,2.3577,2.3579,2.3583,2.3583,2.3585,2.3586,2.3588,2.359,2.3587,2.3588,2.3588,2.3593,2.3593,2.3593,2.359,2.359,2.359,2.3593,0,2.3553,2.3558,2.3561,2.3565,2.3568,2.357,2.3572,2.3575,2.3577,2.358,2.3582,2.3584,2.3584,2.3585,2.3587,2.3589,2.3591,2.3589,2.3592,2.3592,2.3591,2.3594,2.3594,2.3596,2.3593,2.3593,2.3593,0,2.3556,2.3559,2.3564,2.3568,2.3569,2.3571,2.3575,2.3577,2.3581,2.3582,2.3584,2.3585,2.3588,2.3588,2.3592,2.3591,2.3592,2.3593,2.3593,2.3594,2.3593,2.3594,2.3597,2.3597,2.3594,2.3594,2.3594,0,2.3555,2.3561,2.3564,2.3566,2.3571,2.3573,2.3575,2.3578,2.358,2.3583,2.3584,2.3587,2.3589,2.3591,2.3593,2.3593,2.3597,2.3597,2.3598,2.3598,2.3599,2.3599,2.3602,2.36,2.36,2.36,2.36,0,2.3557,2.356,2.3564,2.3567,2.357,2.3573,2.3576,2.3578,2.3581,2.3583,2.3585,2.3587,2.359,2.3593,2.3594,2.3597,2.3598,2.3599,2.3599,2.3599,2.3599,2.36,2.3599,2.36,2.36,2.36,2.36,0,2.3557,2.356,2.3564,2.3569,2.357,2.3572,2.3576,2.3578,2.358,2.3584,2.3585,2.3588,2.3591,2.3594,2.3597,2.3599,2.3602,2.3602,2.3601,2.3601,2.3602,2.3602,2.3606,2.3607,2.3605,2.3605,2.3605,0,2.3557,2.356,2.3565,2.3567,2.3569,2.3573,2.3575,2.3578,2.358,2.3584,2.3586,2.3589,2.3592,2.3597,2.36,2.3603,2.3603,2.3604,2.3604,2.3603,2.3603,2.3603,2.3603,2.3604,2.3604,2.3604,2.3604,0,2.3559,2.356,2.3564,2.3568,2.3571,2.3574,2.3577,2.3578,2.3582,2.3584,2.3588,2.359,2.3595,2.3598,2.3602,2.3603,2.3604,2.3605,2.3605,2.3604,2.3604,2.3604,2.3601,2.3604,2.3604,2.3604,2.3604,2.3604,2.3559,2.3561,2.3565,2.3569,2.3572,2.3575,2.3578,2.358,2.3583,2.3588,2.3589,2.3593,2.3596,2.3601,2.3603,2.3606,2.3606,2.3606,2.3607,2.3607,2.3607,2.3603,2.3606,2.3606,2.3606,2.3606,2.3606,0,2.356,2.3563,2.3566,2.3571,2.3574,2.3576,2.3579,2.3582,2.3585,2.3588,2.3591,2.3596,2.3599,2.3602,2.3606,2.3607,2.3608,2.3608,2.3608,2.3608,2.3606,2.3606,2.3607,2.3607,2.3607,2.3607,2.3607,2.3607,2.3561,2.3565,2.3567,2.3573,2.3576,2.358,2.3582,2.3584,2.3587,2.3592,2.3595,2.3597,2.36,2.3604,2.3607,2.3608,2.3609,2.3609,2.361,2.3608,2.3608,2.3608,2.3607,2.361,2.361,2.3612,2.3612,2.3612]}]]